EW0538 Weather Reports


time (UTC)temp
F
wind
direction
speed
knots
gust
knots
rain 1hr
in
rain 24hr
in
rain mn
in
humidity
%
barometer
mb
20260509200729 71 191 3.5 13.0 0.00 0.00 0.00 9 1007.4
20260509194629 72 207 3.5 13.9 0.00 0.00 0.00 9 1007.4
20260509193633 72 203 4.3 10.4 0.00 0.00 0.00 7 1007.7
20260509192632 72 199 2.6 11.3 0.00 0.00 0.00 10 1007.7
20260509191656 71 156 3.5 11.3 0.00 0.00 0.00 8 1007.9
20260509190706 72 203 1.7 11.3 0.00 0.00 0.00 8 1008.1
20260509185716 71 91 2.6 12.2 0.00 0.00 0.00 8 1008.0
20260509184650 71 205 4.3 12.2 0.00 0.00 0.00 10 1008.1
20260509183637 72 193 2.6 8.7 0.00 0.00 0.00 11 1008.2
20260509181502 71 208 2.6 8.7 0.00 0.00 0.00 12 1008.3
20260509180503 71 236 2.6 8.7 0.00 0.00 0.00 12 1008.5
20260509175524 70 203 2.6 9.6 0.00 0.00 0.00 13 1008.6
20260509174538 70 175 1.7 9.6 0.00 0.00 0.00 16 1008.7
20260509173507 69 217 2.6 7.0 0.00 0.00 0.00 17 1008.9
20260509172519 68 215 0.9 7.0 0.00 0.00 0.00 19 1009.0
20260509171515 68 158 1.7 6.1 0.00 0.00 0.00 19 1009.2
20260509170459 67 207 0.0 3.5 0.00 0.00 0.00 21 1009.3
20260509165448 66 162 0.0 0.9 0.00 0.00 0.00 23 1009.5
20260509164420 65 200 0.0 2.6 0.00 0.00 0.00 24 1009.8
20260509163445 65 191 0.0 0.9 0.00 0.00 0.00 23 1009.8
20260509161332 62 174 0.0 0.0 0.00 0.00 0.00 26 1010.0
20260509160314 60 187 0.0 1.7 0.00 0.00 0.00 28 1010.1
20260509155327 60 180 0.0 1.7 0.00 0.00 0.00 29 1010.3
20260509153159 58 198 0.0 1.7 0.00 0.00 0.00 32 1010.7
20260509152124 57 187 0.9 2.6 0.00 0.00 0.00 34 1010.8
20260509151120 56 184 0.0 1.7 0.00 0.00 0.00 34 1011.0
20260509144925 55 196 0.0 2.6 0.00 0.00 0.00 39 1011.3
20260509143923 54 187 0.0 0.0 0.00 0.00 0.00 42 1011.5
20260509142911 52 207 0.0 0.0 0.00 0.00 0.00 42 1011.6
20260509141843 50 205 0.0 1.7 0.00 0.00 0.00 44 1011.6
20260509140819 48 182 0.0 1.7 0.00 0.00 0.00 45 1011.8
20260509135746 47 160 0.0 0.0 0.00 0.00 0.00 49 1011.7
20260509134753 46 117 0.0 0.0 0.00 0.00 0.00 55 1011.8
20260509133747 44 117 0.0 0.0 0.00 0.00 0.00 58 1011.9
20260509132743 42 117 0.0 0.0 0.00 0.00 0.00 60 1012.0
20260509131718 41 117 0.0 0.0 0.00 0.00 0.00 62 1012.1
20260509130706 39 117 0.0 0.0 0.00 0.00 0.00 65 1012.0
20260509125717 38 117 0.0 0.0 0.00 0.00 0.00 66 1011.8
20260509124657 38 117 0.0 0.0 0.00 0.00 0.00 67 1011.7
20260509123713 37 117 0.0 0.0 0.00 0.00 0.00 67 1011.6
20260509122655 36 117 0.0 0.0 0.00 0.00 0.00 66 1011.3
20260509120536 37 117 0.0 0.0 0.00 0.00 0.00 65 1010.9
20260509115502 37 117 0.0 0.0 0.00 0.00 0.00 64 1010.8
20260509114430 37 117 0.0 0.0 0.00 0.00 0.00 64 1010.6
20260509112328 38 117 0.0 0.0 0.00 0.00 0.00 65 1010.2
20260509111325 38 117 0.0 0.0 0.00 0.00 0.00 64 1010.2
20260509110301 38 117 0.0 0.0 0.00 0.00 0.00 63 1010.2
20260509105235 39 117 0.0 0.0 0.00 0.00 0.00 63 1010.3
20260509104225 39 116 0.0 0.0 0.00 0.00 0.00 63 1010.3
20260509103212 39 117 0.0 0.0 0.00 0.00 0.00 62 1010.1
20260509102225 40 117 0.0 0.0 0.00 0.00 0.00 62 1009.8
20260509101214 40 116 0.0 0.0 0.00 0.00 0.00 61 1009.7
20260509100220 40 117 0.0 0.0 0.00 0.00 0.00 61 1009.7
20260509095242 41 117 0.0 0.0 0.00 0.00 0.00 59 1009.5
20260509094235 41 116 0.0 0.0 0.00 0.00 0.00 59 1009.5
20260509093230 41 116 0.0 0.0 0.00 0.00 0.00 60 1009.4
20260509092214 41 117 0.0 0.0 0.00 0.00 0.00 59 1009.3
20260509091210 42 117 0.0 0.0 0.00 0.00 0.00 59 1009.2
20260509090519 41 123 0.0 0.0 0.00 0.00 0.00 80 1009.1
20260509085516 42 123 0.0 0.0 0.00 0.00 0.00 80 1009.1
20260509084539 43 242 0.0 0.0 0.00 0.00 0.00 79 1008.9
20260509082506 44 240 0.0 0.0 0.00 0.00 0.00 77 1008.8
20260509081508 44 240 0.0 0.0 0.00 0.00 0.00 78 1008.7
20260509080457 45 18 0.0 0.0 0.00 0.00 0.00 73 1008.6
20260509075426 46 18 0.0 0.0 0.00 0.00 0.00 72 1008.5
20260509074424 46 18 0.0 0.0 0.00 0.00 0.00 70 1008.4
20260509073420 47 18 0.0 0.0 0.00 0.00 0.00 71 1008.4
20260509072425 47 158 0.0 0.0 0.00 0.00 0.00 69 1008.5
20260509071415 48 260 0.0 0.0 0.00 0.00 0.00 65 1008.5
20260509070434 48 293 0.0 0.0 0.00 0.00 0.00 66 1008.5
20260509065435 49 325 0.0 0.0 0.00 0.00 0.00 65 1008.4
20260509064407 50 325 0.0 0.0 0.00 0.00 0.00 67 1008.5
20260509063401 51 325 0.0 0.0 0.00 0.00 0.00 69 1008.5
20260509061306 53 325 0.0 0.0 0.00 0.00 0.00 59 1008.4
20260509054102 54 267 0.0 0.0 0.00 0.00 0.00 53 1008.3
20260509053047 54 354 0.0 0.0 0.00 0.00 0.00 53 1008.2
20260509052052 53 20 0.0 0.0 0.00 0.00 0.00 61 1008.1
20260509051019 54 20 0.0 0.0 0.00 0.00 0.00 63 1008.1
20260509050014 54 136 0.0 0.0 0.00 0.00 0.00 56 1008.2
20260509045002 54 137 0.0 0.0 0.00 0.00 0.00 55 1008.2
20260509043939 55 136 0.0 0.0 0.00 0.00 0.00 55 1008.2
20260509040800 55 136 0.0 0.0 0.00 0.00 0.00 52 1008.2
20260509035748 56 137 0.0 0.0 0.00 0.00 0.00 51 1008.1
20260509034716 58 140 0.0 0.0 0.00 0.00 0.00 52 1008.0
20260509033733 58 124 0.0 0.0 0.00 0.00 0.00 47 1007.9
20260509032724 59 148 0.0 0.0 0.00 0.00 0.00 43 1007.6
20260509030652 60 243 0.0 0.0 0.00 0.00 0.00 41 1007.4
20260509024510 61 110 0.0 0.0 0.00 0.00 0.00 38 1007.0
20260509023449 63 229 0.0 0.0 0.00 0.00 0.00 36 1006.9
20260509022437 64 250 0.0 4.3 0.00 0.00 0.00 34 1006.7
20260509020313 66 256 0.0 0.0 0.00 0.00 0.00 34 1006.3
20260509015300 67 238 0.0 0.0 0.00 0.00 0.00 32 1006.3
20260509013147 69 240 0.0 0.0 0.00 0.00 0.00 27 1006.4
20260509012155 68 187 0.0 0.0 0.00 0.00 0.00 20 1006.5
20260509011154 68 186 0.0 0.0 0.00 0.00 0.00 16 1006.5
20260509005047 70 213 1.7 5.2 0.00 0.00 0.00 13 1006.6
20260509004034 71 218 2.6 6.1 0.00 0.00 0.00 13 1006.5
20260509003035 71 175 2.6 8.7 0.00 0.00 0.00 12 1006.4
20260509002055 72 225 1.7 8.7 0.00 0.00 0.00 11 1006.3
20260509001032 73 206 0.0 3.5 0.00 0.00 0.00 11 1006.2
20260509000042 73 188 0.9 2.6 0.00 0.00 0.00 11 1006.3
20260508235037 73 221 0.0 0.0 0.00 0.00 0.00 13 1006.2
20260508234032 74 215 1.7 7.8 0.00 0.00 0.00 11 1006.3
20260508232957 74 212 2.6 7.8 0.00 0.00 0.00 12 1006.5
20260508225747 73 219 1.7 7.8 0.00 0.00 0.00 13 1006.5
20260508224745 73 262 1.7 9.6 0.00 0.00 0.00 14 1006.6
20260508223810 73 232 2.6 9.6 0.00 0.00 0.00 15 1006.8
20260508222746 72 183 0.9 5.2 0.00 0.00 0.00 13 1007.0
20260508221742 72 159 1.7 12.2 0.00 0.00 0.00 12 1007.1
20260508220716 73 191 2.6 12.2 0.00 0.00 0.00 13 1006.9
20260508215738 73 157 1.7 10.4 0.00 0.00 0.00 11 1007.2
20260508214728 73 220 3.5 9.6 0.00 0.00 0.00 13 1007.3
20260508213743 72 225 2.6 11.3 0.00 0.00 0.00 13 1007.4
20260508212805 73 153 3.5 11.3 0.00 0.00 0.00 13 1007.3
20260508211815 73 172 2.6 9.6 0.00 0.00 0.00 12 1007.6
20260508210825 73 219 3.5 9.6 0.00 0.00 0.00 13 1007.5
20260508205831 73 206 1.7 5.2 0.00 0.00 0.00 14 1007.8
20260508204832 73 137 3.5 7.8 0.00 0.00 0.00 12 1007.9
20260508203837 72 225 3.5 10.4 0.00 0.00 0.00 13 1008.1
20260508202814 72 190 2.6 10.4 0.00 0.00 0.00 12 1008.1
20260508201744 72 122 5.2 14.8 0.00 0.00 0.00 11 1008.3